Regional Weather Roundup
Issued by NWS

Home | Current Version | Previous Version | Graphics & Text | Print | Product List | Glossary Off
Versions: 1 2 3 4 5 6 7 8 9 10 11 12 13 14 15 16 17 18 19 20 21 22 23 24 25 26 27 28 29 30 31 32 33 34 35 36 37 38 39 40 41 42 43 44 45 46 47 48 49 50

000
ASUS43 KMKX 180600
RWRWI

WISCONSIN REGIONAL WEATHER ROUNDUP
NATIONAL WEATHER SERVICE MILWAUKEE/SULLIVAN WI
100 AM CDT SAT APR 18 2015

NOTE: "FAIR" INDICATES FEW OR NO CLOUDS BELOW 12,000 FEET WITH NO
SIGNIFICANT WEATHER AND/OR OBSTRUCTIONS TO VISIBILITY.

WIZ001-002-006>008-014>016-023>028-180700-
NORTHWEST WISCONSIN

CITY           SKY/WX    TMP DP  RH WIND       PRES   REMARKS
SUPERIOR ARPT  FAIR      51  28  40 E6        30.09R
ASHLAND        FAIR      51  30  44 N16       30.11R
6HR MIN TEMP:  48; 6HR MAX TEMP:  70;

HAYWARD        FAIR      45  28  51 NE6       30.06R
6HR MIN TEMP:  42; 6HR MAX TEMP:  71;

SIREN          FAIR      41  32  69 N6        30.05R
CUMBERLAND     FAIR      43  32  65 CALM      30.03S
RICE LAKE      FAIR      44  37  75 CALM      30.05R
CHETEK         FAIR      44  39  83 CALM      30.04R
LADYSMITH      FAIR      50  34  55 CALM      30.05R
6HR MIN TEMP:  46; 6HR MAX TEMP:  70;

EAU CLAIRE     NOT AVBL
MENOMONIE      FAIR      51  38  61 CALM      30.04R
NEW RICHMOND   FAIR      46  39  78 CALM      30.04S
OSCEOLA        FAIR      44  35  73 CALM      30.06S
$$

WIZ003>005-009-010-017-018-180700-
NORTH CENTRAL WISCONSIN

CITY           SKY/WX    TMP DP  RH WIND       PRES   REMARKS
MANITOWISH WTR FAIR      51  28  41 N7        30.06R
ARBOR VITAE    FAIR      42  32  68 N8        30.04R
WOODRUFF       FAIR      42  32  68 N8        30.04R
RHINELANDER    FAIR      52  27  38 W5        30.02F
6HR MIN TEMP:  50; 6HR MAX TEMP:  70;

EAGLE RIVER    FAIR      38  32  80 N3        30.03R
LAND O LAKES   FAIR      55  26  32 N12G20    30.05R
PHILLIPS       FAIR      44  28  53 CALM      30.03S
TOMAHAWK       FAIR      45  29  54 CALM      30.03S
MEDFORD        FAIR      50  29  45 CALM      30.03R
MERRILL        FAIR      44  35  71 CALM      30.02S
$$

WIZ029-030-035-036-043>047-180700-
CENTRAL WISCONSIN

CITY           SKY/WX    TMP DP  RH WIND       PRES   REMARKS
WAUSAU         FAIR      52  39  61 NW5       30.01R
6HR MIN TEMP:  52; 6HR MAX TEMP:  70;

MOSINEE        NOT AVBL
MARSHFIELD     FAIR      53  36  52 N9        30.03R
6HR MIN TEMP:  52; 6HR MAX TEMP:  71;

STEVENS POINT  FAIR      44  38  79 CALM      30.02R
WAUPACA        FAIR      51  43  75 CALM      30.01R
WAUTOMA        NOT AVBL
WISC RAPIDS    FAIR      55  37  50 N8        30.03R
6HR MIN TEMP:  50; 6HR MAX TEMP:  74;

CAMP DOUGLAS   NOT AVBL
$$

WIZ011>013-019>022-031-037>040-048>050-180700-
NORTHEAST WISCONSIN

CITY           SKY/WX    TMP DP  RH WIND       PRES   REMARKS
ANTIGO         FAIR      47  38  72 CALM      30.02S
SHAWANO        FAIR      50  42  73 CALM      30.00R
OCONTO         FAIR      46  40  81 CALM      29.99S
STURGEON BAY   FAIR      46  37  71 NW5       30.01S
6HR MIN TEMP:  45; 6HR MAX TEMP:  55;

GREEN BAY      FAIR      50  44  80 W6        29.99R
6HR MIN TEMP:  50; 6HR MAX TEMP:  66;

MANITOWOC      NOT AVBL
APPLETON       FAIR      52  43  71 W9        30.00S
CLINTONVILLE   FAIR      48  43  81 CALM      30.00S
OSHKOSH        FAIR      57  43  59 W7        30.00R
6HR MIN TEMP:  55; 6HR MAX TEMP:  68;

$$

WIZ032>034-041-042-053>061-180700-
SOUTHWEST WISCONSIN

CITY           SKY/WX    TMP DP  RH WIND       PRES   REMARKS
LA CROSSE      FAIR      57  50  77 CALM      30.02R
6HR MIN TEMP:  53; 6HR MAX TEMP:  75;

SPARTA         FAIR      46  40  81 CALM      30.04R
VIROQUA        FAIR      59  43  55 N5        30.03S
BOSCOBEL       FAIR      49  44  83 CALM      30.02R
6HR MIN TEMP:  49; 6HR MAX TEMP:  76;

PRAIRIE DU CHI FAIR      53  45  73 CALM      30.02R
PLATTEVILLE    FAIR      63  44  50 N3        30.02S
$$

WIZ056-057-062-063-064-067-068-180700-
SOUTH CENTRAL WISCONSIN

CITY           SKY/WX    TMP DP  RH WIND       PRES   REMARKS
REEDSBURG      FAIR      53  46  78 CALM      30.02R
BARABOO/DELLS  FAIR      54  42  64 CALM      30.02R
LONE ROCK      NOT AVBL
MINERAL POINT  FAIR      63  43  48 CALM      30.02S
MADISON        FAIR      54  45  71 CALM      30.01R
6HR MIN TEMP:  53; 6HR MAX TEMP:  76;

MIDDLETON      FAIR      52  47  83 CALM      30.02R
WATERTOWN      FAIR      49  46  88 CALM      30.00S
MONROE         FAIR      68  45  42 W8        30.01S
JANESVILLE     FAIR      55  43  62 CALM      30.00S
$$

WIZ051-052-058>065-066-070>072-180700-
SOUTHEAST WISCONSIN

CITY           SKY/WX    TMP DP  RH WIND       PRES   REMARKS
MILWAUKEE      FAIR      54  42  64 S3        30.01R
6HR MIN TEMP:  48; 6HR MAX TEMP:  55;

WAUKESHA       FAIR      50  41  71 CALM      30.01S
MILWAUKEE/TIMM FAIR      50  39  66 CALM      30.01R
RACINE         FAIR      50  42  74 CALM      30.01S HAZE
6HR MIN TEMP:  48; 6HR MAX TEMP:  54;

BURLINGTON     FAIR      47  44  87 CALM      30.00S
KENOSHA        FAIR      49  43  80 SW5       30.00S HAZE
6HR MIN TEMP:  46; 6HR MAX TEMP:  62;

FOND DU LAC    FAIR      54  42  64 SW6       30.00S
6HR MIN TEMP:  53; 6HR MAX TEMP:  68;

SHEBOYGAN      FAIR      50  41  71 SW5       29.99S
6HR MIN TEMP:  47; 6HR MAX TEMP:  57;

WEST BEND      FAIR      50  37  62 CALM      30.00S
JUNEAU         FAIR      53  43  67 CALM      30.02R
$$

LSZ147-162-180700-
LAKE SUPERIOR

STATION/POSITION TIME  TEMP    WIND        PRES    WAVE
                       AIR SEA DIR/SP/G            HT/PER
                 (UTC) (F)     (DEG/KT/KT) (MB)    (FT/S)
DEVILS ISLAND    0500   47      10/ 21/ 23 1019.3R
PORT WING        0500   48      40/ 10/ 16 1018.6
SAXON HARBOR     0500   53      40/  2/  8 1018.3R
$$

LMZ867-665-643>646-180700-
LAKE MICHIGAN

STATION/POSITION TIME  TEMP    WIND        PRES    WAVE
                       AIR SEA DIR/SP/G            HT/PER
                 (UTC) (F)     (DEG/KT/KT) (MB)    (FT/S)
CHAMBERS ISLAND  0500   41      CALM  /  1 1015.9S
NORTHPORT PIER   0500   44     160/  3/  3 1015.2F
SISTER BAY       0502   45     200/  2/  5   N/A
KEWAUNEE LAKESHO 0500   51      CALM  /  1 1014.3R
SHEBOYGAN LAKESH 0500   55     240/  5/  7 1015.9F
PORT WASHINGTON  0540   47     230/  1/  3 1016.3F
MILWAUKEE LAKESH 0500   42     180/  1/  2   N/A
KENOSHA   LAKESH 0500   52     210/  6/  7 1015.6F
$$

TC  - TEMPERATURE IN CELSIUS
VSB - VISIBILITY IN STATUTE MILES
WCI - WIND CHILL INDEX
HX  - HEAT INDEX




USA.gov is the U.S. government's official web portal to all federal, state and local government web resources and services.